Hourly Data Report for January 11, 2017

All times are specified in Local Standard Time (LST). Add 1 hour to adjust for Daylight Saving Time where and when it is observed.

OTTAWA INTL A
ONTARIO

45°19'00.000" N
75°40'00.000" W
114.90 m
6106001
71628
YOW

Download Data

Hourly Data (January 2017)
Hourly Data Report for January 11, 2017
Temp Definition
°C
Dew Point Temp Definition
°C
Rel Hum Definition
%
Wind Dir Definition
10's deg

Wind Spd Definition
km/h
Visibility Definition
km
Stn Press Definition
kPa
Hmdx Definition


Wind Chill Definition


Weather Definition


TIME
00:00 Legend Double Dagger 0.7 -0.3 93 16 27 12.9 99.04     LegendNANA
01:00 Legend Double Dagger 1.0 0.1 94 16 21 12.9 98.87     Rain
02:00 Legend Double Dagger 1.5 0.6 94 17 35 12.9 98.73     Rain
03:00 Legend Double Dagger 1.9 0.9 93 18 32 24.1 98.59     Rain
04:00 Legend Double Dagger 3.6 1.3 85 19 49 24.1 98.59     Cloudy
05:00 Legend Double Dagger 3.6 0.8 82 22 39 24.1 98.86     LegendNANA
06:00 Legend Double Dagger 3.3 -1.5 71 23 42 24.1 99.14     LegendNANA
07:00 Legend Double Dagger 3.3 -1.7 70 24 36 24.1 99.38     Cloudy
08:00 Legend Double Dagger 3.8 -3.3 60 24 49 24.1 99.63     LegendNANA
09:00 Legend Double Dagger 3.5 -1.9 68 23 32 24.1 99.87     LegendNANA
10:00 Legend Double Dagger 3.6 -4.1 57 25 46 24.1 100.14     Mostly Cloudy
11:00 Legend Double Dagger 3.7 -3.1 61 23 28 24.1 100.23     LegendNANA
12:00 Legend Double Dagger 3.6 -3.5 60 21 29 24.1 100.28     LegendNANA
13:00 Legend Double Dagger 4.2 -3.1 59 21 20 24.1 100.29     Mainly Clear
14:00 Legend Double Dagger 4.1 -3.0 60 21 27 24.1 100.23     LegendNANA
15:00 Legend Double Dagger 3.5 -1.9 68 20 18 24.1 100.34     LegendNANA
16:00 Legend Double Dagger 3.4 -2.4 66 19 20 24.1 100.43     Mostly Cloudy
17:00 Legend Double Dagger 3.3 -3.3 62 18 15 24.1 100.37     LegendNANA
18:00 Legend Double Dagger 2.8 -2.9 66 17 15 24.1 100.21     LegendNANA
19:00 Legend Double Dagger 2.3 -2.8 69 16 16 24.1 100.10     Cloudy
20:00 Legend Double Dagger 4.2 -2.0 64 17 15 24.1 99.96     LegendNANA
21:00 Legend Double Dagger 4.7 -2.0 62 17 20 24.1 99.91     LegendNANA
22:00 Legend Double Dagger 5.0 -2.1 60 18 25 24.1 99.81     Cloudy
23:00 Legend Double Dagger 5.5 -2.1 58 18 23 24.1 99.73     LegendNANA

Notes on Data Quality.

Legend

  • E = Estimated
  • M = Missing
  • NA = Not Available
  • ‡ = Partner data that is not subject to review by the National Climate Archives
Date modified: